Time,TemperatureF,DewpointF,PressureIn,WindDirection,WindDirectionDegrees,WindSpeedMPH,WindSpeedGustMPH,Humidity,HourlyPrecipIn,Conditions,Clouds,dailyrainin,SoftwareType,DateUTC
2013-04-23 00:01:00,45.9,35.2,30.29,East,90,1.5,1.5,66,0.00,,FEW250,0.00,VWS V14.01,2013-04-23 04:01:00,
2013-04-23 00:06:00,45.9,35.6,30.29,East,90,1.5,1.5,67,0.00,,FEW250,0.00,VWS V14.01,2013-04-23 04:06:00,
2013-04-23 00:11:00,45.8,35.5,30.29,East,90,1.5,1.5,67,0.00,,FEW250,0.00,VWS V14.01,2013-04-23 04:11:00,
2013-04-23 00:16:00,45.8,36.3,30.30,East,90,1.5,1.5,69,0.00,,FEW250,0.00,VWS V14.01,2013-04-23 04:16:00,
2013-04-23 00:21:00,45.8,35.9,30.30,East,90,1.5,1.5,68,0.00,,FEW250,0.00,VWS V14.01,2013-04-23 04:21:00,
2013-04-23 00:26:00,45.8,35.9,30.30,East,90,1.5,1.5,68,0.00,,FEW250,0.00,VWS V14.01,2013-04-23 04:26:00,
2013-04-23 00:31:00,45.6,35.7,30.30,East,90,1.5,1.5,68,0.00,,FEW250,0.00,VWS V14.01,2013-04-23 04:31:00,
2013-04-23 00:36:00,45.6,35.7,30.30,East,90,1.5,1.5,68,0.00,,FEW250,0.00,VWS V14.01,2013-04-23 04:36:00,
2013-04-23 00:41:00,45.4,35.9,30.30,East,90,1.5,1.5,69,0.00,,FEW250,0.00,VWS V14.01,2013-04-23 04:41:00,
2013-04-23 00:46:00,45.2,35.7,30.30,East,90,1.5,1.5,69,0.00,,FEW250,0.00,VWS V14.01,2013-04-23 04:46:00,
2013-04-23 00:51:00,45.0,35.9,30.30,SE,135,1.5,1.5,70,0.00,,FEW250,0.00,VWS V14.01,2013-04-23 04:51:00,
2013-04-23 00:56:00,45.0,35.9,30.29,SE,135,1.5,1.5,70,0.00,,FEW250,0.00,VWS V14.01,2013-04-23 04:56:00,
2013-04-23 01:01:00,45.0,36.2,30.30,SE,135,1.5,1.5,71,0.00,,OVC042,0.00,VWS V14.01,2013-04-23 05:01:00,
2013-04-23 01:06:00,45.2,36.4,30.29,SE,135,1.5,1.5,71,0.00,,OVC042,0.00,VWS V14.01,2013-04-23 05:06:00,
2013-04-23 01:11:00,45.4,36.6,30.30,SE,135,1.5,1.5,71,0.00,,OVC042,0.00,VWS V14.01,2013-04-23 05:11:00,
2013-04-23 01:16:00,45.6,36.8,30.30,SE,135,1.5,1.5,71,0.00,,OVC042,0.00,VWS V14.01,2013-04-23 05:16:00,
2013-04-23 01:21:00,45.8,37.3,30.30,SE,135,1.5,1.5,72,0.00,,OVC042,0.00,VWS V14.01,2013-04-23 05:21:00,
2013-04-23 01:26:00,45.9,37.4,30.30,SE,135,1.5,1.5,72,0.00,,OVC042,0.00,VWS V14.01,2013-04-23 05:26:00,
2013-04-23 01:31:00,46.3,37.8,30.30,SE,135,1.5,1.5,72,0.00,,OVC042,0.00,VWS V14.01,2013-04-23 05:31:00,
2013-04-23 01:36:00,46.5,38.0,30.29,SE,135,1.5,1.5,72,0.00,,OVC042,0.00,VWS V14.01,2013-04-23 05:36:00,
2013-04-23 01:41:00,46.7,38.2,30.29,SE,135,1.5,1.5,72,0.00,,OVC042,0.00,VWS V14.01,2013-04-23 05:41:00,
2013-04-23 01:46:00,47.0,38.5,30.29,SE,135,1.5,1.5,72,0.00,,OVC042,0.00,VWS V14.01,2013-04-23 05:46:00,
2013-04-23 01:51:00,47.2,39.0,30.29,SE,135,1.5,1.5,73,0.00,,OVC042,0.00,VWS V14.01,2013-04-23 05:51:00,
2013-04-23 01:56:00,47.4,39.2,30.29,SE,135,1.5,1.5,73,0.00,,OVC042,0.00,VWS V14.01,2013-04-23 05:56:00,
2013-04-23 02:01:00,47.7,39.5,30.29,SE,135,1.5,1.5,73,0.00,,OVC046,0.00,VWS V14.01,2013-04-23 06:01:00,
2013-04-23 02:06:00,47.9,40.0,30.29,ENE,68,1.5,1.5,74,0.00,,OVC046,0.00,VWS V14.01,2013-04-23 06:06:00,
2013-04-23 02:11:00,48.1,40.2,30.29,ENE,68,1.5,1.5,74,0.00,,OVC046,0.00,VWS V14.01,2013-04-23 06:11:00,
2013-04-23 02:16:00,48.3,40.1,30.29,ENE,68,1.5,1.5,73,0.00,,OVC046,0.00,VWS V14.01,2013-04-23 06:16:00,
2013-04-23 02:21:00,48.6,40.7,30.28,ESE,112,1.5,1.5,74,0.00,,OVC046,0.00,VWS V14.01,2013-04-23 06:21:00,
2013-04-23 02:26:00,48.8,40.9,30.28,NE,45,2.2,2.2,74,0.00,,OVC046,0.00,VWS V14.01,2013-04-23 06:26:00,
2013-04-23 02:31:00,49.2,40.9,30.28,NE,45,1.9,1.9,73,0.00,,OVC046,0.00,VWS V14.01,2013-04-23 06:31:00,
2013-04-23 02:36:00,49.5,41.2,30.28,NE,45,1.5,1.5,73,0.00,,OVC046,0.00,VWS V14.01,2013-04-23 06:36:00,
2013-04-23 02:41:00,49.7,41.0,30.27,NE,45,1.5,1.5,72,0.00,,OVC046,0.00,VWS V14.01,2013-04-23 06:41:00,
2013-04-23 02:46:00,49.9,41.2,30.27,ENE,68,1.7,1.7,72,0.00,,OVC046,0.00,VWS V14.01,2013-04-23 06:46:00,
2013-04-23 02:51:00,50.3,41.6,30.27,NE,45,1.5,3.1,72,0.00,,OVC046,0.00,VWS V14.01,2013-04-23 06:51:00,
2013-04-23 02:56:00,51.0,41.6,30.27,NNE,22,3.3,3.3,70,0.00,,OVC046,0.00,VWS V14.01,2013-04-23 06:56:00,
2013-04-23 03:01:00,51.3,41.5,30.27,NE,45,4.0,4.0,69,0.00,,FEW030,0.00,VWS V14.01,2013-04-23 07:01:00,
2013-04-23 03:06:00,51.7,41.8,30.27,NNE,22,3.3,3.3,69,0.00,,FEW030,0.00,VWS V14.01,2013-04-23 07:06:00,
2013-04-23 03:11:00,51.7,41.5,30.26,ENE,68,3.5,3.5,68,0.00,,FEW030,0.00,VWS V14.01,2013-04-23 07:11:00,
2013-04-23 03:16:00,51.9,41.7,30.26,East,90,1.5,2.2,68,0.00,,FEW030,0.00,VWS V14.01,2013-04-23 07:16:00,
2013-04-23 03:21:00,52.1,41.5,30.26,ESE,112,1.9,1.9,67,0.00,,FEW030,0.00,VWS V14.01,2013-04-23 07:21:00,
2013-04-23 03:26:00,52.1,41.8,30.26,ENE,68,4.9,4.9,68,0.00,,FEW030,0.00,VWS V14.01,2013-04-23 07:26:00,
2013-04-23 03:31:00,52.1,41.5,30.27,NE,45,4.4,6.4,67,0.00,,FEW030,0.00,VWS V14.01,2013-04-23 07:31:00,
2013-04-23 03:36:00,52.1,41.1,30.27,North,0,5.3,5.8,66,0.00,,FEW030,0.00,VWS V14.01,2013-04-23 07:36:00,
2013-04-23 03:41:00,52.2,41.2,30.26,ESE,112,3.5,3.7,66,0.00,,FEW030,0.00,VWS V14.01,2013-04-23 07:41:00,
2013-04-23 03:46:00,52.2,41.2,30.26,NE,45,1.5,2.6,66,0.00,,FEW030,0.00,VWS V14.01,2013-04-23 07:46:00,
2013-04-23 03:51:00,52.2,41.2,30.26,East,90,1.9,2.8,66,0.00,,FEW030,0.00,VWS V14.01,2013-04-23 07:51:00,
2013-04-23 03:56:00,52.2,41.2,30.26,ENE,68,1.7,4.9,66,0.00,,FEW030,0.00,VWS V14.01,2013-04-23 07:56:00,
2013-04-23 04:01:00,52.2,41.2,30.26,ENE,68,4.0,4.0,66,0.00,,OVC038,0.00,VWS V14.01,2013-04-23 08:01:00,
2013-04-23 04:06:00,52.2,41.2,30.26,NNE,22,3.3,3.3,66,0.00,,OVC038,0.00,VWS V14.01,2013-04-23 08:06:00,
2013-04-23 04:11:00,52.2,41.2,30.26,NNE,22,3.1,3.7,66,0.00,,OVC038,0.00,VWS V14.01,2013-04-23 08:11:00,
2013-04-23 04:16:00,52.4,41.4,30.26,NE,45,1.9,1.9,66,0.00,,OVC038,0.00,VWS V14.01,2013-04-23 08:16:00,
2013-04-23 04:21:00,52.4,41.4,30.26,East,90,3.3,4.4,66,0.00,,OVC038,0.00,VWS V14.01,2013-04-23 08:21:00,
2013-04-23 04:25:00,52.4,41.4,30.26,NNE,22,4.9,4.9,66,0.00,,OVC038,0.00,VWS V14.01,2013-04-23 08:25:00,
2013-04-23 04:31:00,52.4,41.4,30.26,ESE,112,4.2,4.2,66,0.00,,OVC038,0.00,VWS V14.01,2013-04-23 08:31:00,
2013-04-23 04:35:00,52.2,41.2,30.26,NE,45,2.4,3.3,66,0.00,,OVC038,0.00,VWS V14.01,2013-04-23 08:35:00,
2013-04-23 04:41:00,52.1,41.1,30.27,SSW,202,1.7,3.1,66,0.00,,OVC042,0.00,VWS V14.01,2013-04-23 08:41:00,
2013-04-23 04:45:00,52.1,41.5,30.26,ENE,68,3.1,3.1,67,0.00,,OVC042,0.00,VWS V14.01,2013-04-23 08:45:00,
2013-04-23 04:50:00,51.9,40.9,30.26,East,90,1.9,1.9,66,0.00,,OVC042,0.00,VWS V14.01,2013-04-23 08:50:00,
2013-04-23 04:55:00,51.9,41.3,30.26,ENE,68,5.1,5.1,67,0.00,,OVC042,0.00,VWS V14.01,2013-04-23 08:55:00,
2013-04-23 05:00:00,51.7,41.1,30.26,ENE,68,3.1,3.1,67,0.00,,OVC024,0.00,VWS V14.01,2013-04-23 09:00:00,
2013-04-23 05:05:00,51.7,41.1,30.26,NE,45,1.9,3.3,67,0.00,,OVC024,0.00,VWS V14.01,2013-04-23 09:05:00,
2013-04-23 05:10:00,51.7,41.5,30.26,NNE,22,1.9,1.9,68,0.00,,OVC024,0.00,VWS V14.01,2013-04-23 09:10:00,
2013-04-23 05:15:00,51.5,41.3,30.25,NNE,22,3.3,3.3,68,0.00,,OVC024,0.00,VWS V14.01,2013-04-23 09:15:00,
2013-04-23 05:20:00,51.3,41.1,30.25,NE,45,1.9,1.9,68,0.00,,OVC024,0.00,VWS V14.01,2013-04-23 09:20:00,
2013-04-23 05:25:00,51.2,41.0,30.25,East,90,1.5,1.5,68,0.00,,OVC024,0.00,VWS V14.01,2013-04-23 09:25:00,
2013-04-23 05:30:00,51.2,41.0,30.25,NE,45,1.9,1.9,68,0.00,,OVC024,0.00,VWS V14.01,2013-04-23 09:30:00,
2013-04-23 05:35:00,51.0,40.8,30.25,NE,45,1.7,2.4,68,0.00,,OVC024,0.00,VWS V14.01,2013-04-23 09:35:00,
2013-04-23 05:40:00,51.2,41.0,30.25,ENE,68,2.6,3.5,68,0.00,,OVC024,0.00,VWS V14.01,2013-04-23 09:40:00,
2013-04-23 05:45:00,51.2,41.4,30.25,NNW,338,2.6,4.6,69,0.00,,OVC024,0.00,VWS V14.01,2013-04-23 09:45:00,
2013-04-23 05:50:00,51.2,41.4,30.26,ESE,112,2.6,3.5,69,0.00,,OVC024,0.00,VWS V14.01,2013-04-23 09:50:00,
2013-04-23 05:55:00,51.2,41.4,30.26,NNE,22,1.9,2.8,69,0.00,,OVC024,0.00,VWS V14.01,2013-04-23 09:55:00,
2013-04-23 06:00:00,51.3,41.5,30.26,ENE,68,2.6,2.6,69,0.00,,OVC024,0.00,VWS V14.01,2013-04-23 10:00:00,
2013-04-23 06:05:00,51.3,41.5,30.26,ENE,68,1.9,1.9,69,0.00,,OVC024,0.00,VWS V14.01,2013-04-23 10:05:00,
2013-04-23 06:10:00,51.3,41.5,30.26,ENE,68,1.9,3.7,69,0.00,,OVC024,0.00,VWS V14.01,2013-04-23 10:10:00,
2013-04-23 06:15:00,51.3,41.8,30.26,ENE,68,4.0,4.0,70,0.00,,OVC024,0.00,VWS V14.01,2013-04-23 10:15:00,
2013-04-23 06:20:00,51.3,41.8,30.26,ENE,68,3.1,3.1,70,0.00,,OVC024,0.00,VWS V14.01,2013-04-23 10:20:00,
2013-04-23 06:25:00,51.3,41.8,30.26,ESE,112,1.7,1.7,70,0.00,,OVC024,0.00,VWS V14.01,2013-04-23 10:25:00,
2013-04-23 06:30:00,51.3,41.5,30.26,ESE,112,1.5,1.5,69,0.00,,OVC024,0.00,VWS V14.01,2013-04-23 10:30:00,
2013-04-23 06:35:00,51.3,41.8,30.26,SE,135,1.9,1.9,70,0.00,,OVC024,0.00,VWS V14.01,2013-04-23 10:35:00,
2013-04-23 06:40:00,51.3,41.5,30.27,NE,45,1.5,1.5,69,0.00,,OVC024,0.00,VWS V14.01,2013-04-23 10:40:00,
2013-04-23 06:45:00,51.5,42.4,30.27,ENE,68,2.4,3.7,71,0.00,,OVC024,0.00,VWS V14.01,2013-04-23 10:45:00,
2013-04-23 06:50:00,51.3,41.8,30.27,ENE,68,3.3,3.3,70,0.00,,OVC024,0.00,VWS V14.01,2013-04-23 10:50:00,
2013-04-23 06:55:00,51.3,41.8,30.27,NE,45,2.2,2.8,70,0.00,,OVC024,0.00,VWS V14.01,2013-04-23 10:55:00,
2013-04-23 07:00:00,51.5,42.8,30.27,NNE,22,1.9,2.8,72,0.00,,OVC026,0.00,VWS V14.01,2013-04-23 11:00:00,
2013-04-23 07:05:00,51.7,42.6,30.26,NE,45,4.4,4.4,71,0.00,,OVC026,0.00,VWS V14.01,2013-04-23 11:05:00,
2013-04-23 07:10:00,51.7,43.0,30.27,ENE,68,2.4,2.4,72,0.00,,OVC026,0.00,VWS V14.01,2013-04-23 11:10:00,
2013-04-23 07:15:00,51.7,43.0,30.27,NNE,22,2.6,3.7,72,0.00,,OVC026,0.00,VWS V14.01,2013-04-23 11:15:00,
2013-04-23 07:20:00,51.7,42.6,30.27,NE,45,4.0,4.0,71,0.00,,OVC026,0.00,VWS V14.01,2013-04-23 11:20:00,
2013-04-23 07:25:00,51.7,43.0,30.27,ESE,112,2.2,3.5,72,0.00,,OVC026,0.00,VWS V14.01,2013-04-23 11:25:00,
2013-04-23 07:30:00,51.7,43.0,30.28,ENE,68,2.6,2.6,72,0.00,,OVC026,0.00,VWS V14.01,2013-04-23 11:30:00,
2013-04-23 07:35:00,51.9,43.2,30.28,ENE,68,4.0,4.0,72,0.00,,OVC026,0.00,VWS V14.01,2013-04-23 11:35:00,
2013-04-23 07:40:00,51.9,43.2,30.28,ENE,68,4.4,4.9,72,0.00,,OVC026,0.00,VWS V14.01,2013-04-23 11:40:00,
2013-04-23 07:45:00,52.2,43.4,30.28,ESE,112,2.6,4.0,72,0.00,,OVC026,0.00,VWS V14.01,2013-04-23 11:45:00,
2013-04-23 07:50:00,52.4,43.6,30.28,East,90,1.5,1.5,72,0.00,,OVC026,0.00,VWS V14.01,2013-04-23 11:50:00,
2013-04-23 07:55:00,52.6,43.5,30.28,NNW,338,3.3,3.5,71,0.00,,OVC026,0.00,VWS V14.01,2013-04-23 11:55:00,
2013-04-23 08:00:00,52.6,43.5,30.28,NE,45,4.9,4.9,71,0.00,,OVC033,0.00,VWS V14.01,2013-04-23 12:00:00,
2013-04-23 08:05:00,52.6,43.5,30.27,ENE,68,5.1,5.5,71,0.00,,OVC033,0.00,VWS V14.01,2013-04-23 12:05:00,
2013-04-23 08:10:00,52.6,43.5,30.27,NNE,22,3.7,3.7,71,0.00,,OVC033,0.00,VWS V14.01,2013-04-23 12:10:00,
2013-04-23 08:15:00,52.8,43.6,30.28,North,0,2.4,2.4,71,0.00,,OVC033,0.00,VWS V14.01,2013-04-23 12:15:00,
2013-04-23 08:20:00,53.1,44.3,30.28,NE,45,7.1,7.1,72,0.00,,OVC033,0.00,VWS V14.01,2013-04-23 12:20:00,
2013-04-23 08:25:00,53.0,44.2,30.27,NNE,22,5.5,5.5,72,0.00,,OVC033,0.00,VWS V14.01,2013-04-23 12:25:00,
2013-04-23 08:30:00,53.1,44.3,30.27,ESE,112,2.6,4.9,72,0.00,,OVC033,0.00,VWS V14.01,2013-04-23 12:30:00,
2013-04-23 08:35:00,53.1,44.3,30.27,East,90,7.5,7.5,72,0.00,,OVC036,0.00,VWS V14.01,2013-04-23 12:35:00,
2013-04-23 08:40:00,53.1,44.3,30.27,NE,45,5.1,6.2,72,0.00,,OVC036,0.00,VWS V14.01,2013-04-23 12:40:00,
2013-04-23 08:45:00,53.1,44.7,30.27,East,90,5.3,5.3,73,0.00,,OVC036,0.00,VWS V14.01,2013-04-23 12:45:00,
2013-04-23 08:50:00,53.3,44.5,30.28,NE,45,3.1,5.3,72,0.00,,OVC036,0.00,VWS V14.01,2013-04-23 12:50:00,
2013-04-23 08:55:00,53.1,44.3,30.28,NE,45,3.3,5.3,72,0.00,,OVC036,0.00,VWS V14.01,2013-04-23 12:55:00,
2013-04-23 09:00:00,53.3,44.8,30.28,NE,45,2.8,3.3,73,0.00,,OVC036,0.00,VWS V14.01,2013-04-23 13:00:00,
2013-04-23 09:05:00,53.7,44.9,30.28,NE,45,2.6,2.6,72,0.00,,OVC022,0.00,VWS V14.01,2013-04-23 13:05:00,
2013-04-23 09:10:00,53.9,45.0,30.28,ENE,68,3.3,3.3,72,0.00,,OVC022,0.00,VWS V14.01,2013-04-23 13:10:00,
2013-04-23 09:15:00,53.9,45.0,30.28,NE,45,6.2,6.2,72,0.00,,OVC022,0.00,VWS V14.01,2013-04-23 13:15:00,
2013-04-23 09:20:00,54.3,45.2,30.29,ESE,112,2.8,3.7,71,0.00,,OVC022,0.00,VWS V14.01,2013-04-23 13:20:00,
2013-04-23 09:25:00,54.5,45.3,30.29,NNE,22,3.5,6.2,71,0.00,,OVC022,0.00,VWS V14.01,2013-04-23 13:25:00,
2013-04-23 09:30:00,54.8,45.6,30.29,SE,135,5.3,6.9,71,0.00,,OVC022,0.00,VWS V14.01,2013-04-23 13:30:00,
2013-04-23 09:35:00,54.5,45.0,30.30,NNE,22,6.9,6.9,70,0.00,,OVC022,0.00,VWS V14.01,2013-04-23 13:35:00,
2013-04-23 09:40:00,54.3,44.8,30.30,ENE,68,4.6,4.6,70,0.00,,OVC022,0.00,VWS V14.01,2013-04-23 13:40:00,
2013-04-23 09:45:00,54.5,45.0,30.30,NNE,22,4.0,6.9,70,0.00,,OVC022,0.00,VWS V14.01,2013-04-23 13:45:00,
2013-04-23 09:50:00,54.8,45.3,30.30,WNW,292,2.2,2.6,70,0.00,,OVC022,0.00,VWS V14.01,2013-04-23 13:50:00,
2013-04-23 09:55:00,55.2,45.3,30.30,East,90,2.2,7.1,69,0.00,,OVC022,0.00,VWS V14.01,2013-04-23 13:55:00,
2013-04-23 10:00:00,55.6,45.6,30.30,NNW,338,1.9,1.9,69,0.00,,OVC022,0.00,VWS V14.01,2013-04-23 14:00:00,
2013-04-23 10:05:00,56.1,46.1,30.30,NNE,22,1.9,1.9,69,0.00,,OVC022,0.00,VWS V14.01,2013-04-23 14:05:00,
2013-04-23 10:10:00,56.6,46.2,30.30,NNE,22,4.6,4.9,68,0.00,,OVC022,0.00,VWS V14.01,2013-04-23 14:10:00,
2013-04-23 10:15:00,56.8,46.4,30.30,East,90,3.3,4.2,68,0.00,,OVC022,0.00,VWS V14.01,2013-04-23 14:15:00,
2013-04-23 10:20:00,56.6,45.8,30.30,NE,45,4.4,4.4,67,0.00,,OVC022,0.00,VWS V14.01,2013-04-23 14:20:00,
2013-04-23 10:25:00,56.6,46.2,30.30,ESE,112,1.9,4.0,68,0.00,,OVC022,0.00,VWS V14.01,2013-04-23 14:25:00,
2013-04-23 10:30:00,57.4,46.6,30.29,NE,45,1.7,1.9,67,0.00,,OVC022,0.00,VWS V14.01,2013-04-23 14:30:00,
2013-04-23 10:35:00,57.7,46.8,30.30,ESE,112,2.6,2.6,67,0.00,,OVC022,0.00,VWS V14.01,2013-04-23 14:35:00,
2013-04-23 10:40:00,58.1,46.8,30.30,North,0,3.7,4.0,66,0.00,,OVC022,0.00,VWS V14.01,2013-04-23 14:40:00,
2013-04-23 10:45:00,58.1,46.0,30.29,NE,45,2.6,4.0,64,0.00,,OVC022,0.00,VWS V14.01,2013-04-23 14:45:00,
2013-04-23 10:50:00,58.1,46.4,30.29,West,270,1.9,3.1,65,0.00,,OVC022,0.00,VWS V14.01,2013-04-23 14:50:00,
2013-04-23 10:55:00,59.2,47.0,30.30,NNW,338,2.4,2.4,64,0.00,,OVC022,0.00,VWS V14.01,2013-04-23 14:55:00,
2013-04-23 11:00:00,59.5,47.3,30.31,West,270,1.9,2.6,64,0.00,,OVC022,0.00,VWS V14.01,2013-04-23 15:00:00,
2013-04-23 11:05:00,59.5,46.9,30.30,ENE,68,3.3,3.3,63,0.00,,OVC024,0.00,VWS V14.01,2013-04-23 15:05:00,
2013-04-23 11:10:00,59.5,46.9,30.29,ENE,68,3.5,3.5,63,0.00,,OVC024,0.00,VWS V14.01,2013-04-23 15:10:00,
2013-04-23 11:15:00,59.5,46.9,30.29,NE,45,2.6,2.6,63,0.00,,OVC024,0.00,VWS V14.01,2013-04-23 15:15:00,
2013-04-23 11:20:00,59.2,46.2,30.29,North,0,5.3,5.3,62,0.00,,OVC024,0.00,VWS V14.01,2013-04-23 15:20:00,
2013-04-23 11:25:00,59.0,46.4,30.28,ESE,112,2.6,2.6,63,0.00,,OVC024,0.00,VWS V14.01,2013-04-23 15:25:00,
2013-04-23 11:30:00,59.5,46.9,30.28,ENE,68,5.1,5.1,63,0.00,,OVC024,0.00,VWS V14.01,2013-04-23 15:30:00,
2013-04-23 11:35:00,59.5,46.9,30.29,SSE,158,2.4,5.8,63,0.00,,OVC024,0.00,VWS V14.01,2013-04-23 15:35:00,
2013-04-23 11:40:00,59.7,47.5,30.29,ENE,68,2.6,2.6,64,0.00,,OVC024,0.00,VWS V14.01,2013-04-23 15:40:00,
2013-04-23 11:45:00,59.9,47.7,30.30,West,270,1.5,1.5,64,0.00,,OVC024,0.00,VWS V14.01,2013-04-23 15:45:00,
2013-04-23 11:50:00,60.4,48.2,30.30,NNE,22,3.1,3.1,64,0.00,,OVC024,0.00,VWS V14.01,2013-04-23 15:50:00,
2013-04-23 11:55:00,61.3,48.6,30.30,NW,315,1.5,1.5,63,0.00,,OVC024,0.00,VWS V14.01,2013-04-23 15:55:00,
2013-04-23 12:00:00,62.0,48.8,30.29,NW,315,2.6,2.6,62,0.00,,OVC024,0.00,VWS V14.01,2013-04-23 16:00:00,
2013-04-23 12:05:00,61.9,48.7,30.29,ENE,68,4.0,4.0,62,0.00,,BKN026,0.00,VWS V14.01,2013-04-23 16:05:00,
2013-04-23 12:10:00,62.0,48.4,30.29,NNW,338,4.9,4.9,61,0.00,,BKN026,0.00,VWS V14.01,2013-04-23 16:10:00,
2013-04-23 12:15:00,61.9,48.3,30.29,ENE,68,2.2,3.3,61,0.00,,BKN026,0.00,VWS V14.01,2013-04-23 16:15:00,
2013-04-23 12:20:00,62.0,48.0,30.29,East,90,6.0,6.0,60,0.00,,BKN026,0.00,VWS V14.01,2013-04-23 16:20:00,
2013-04-23 12:25:00,61.7,47.2,30.28,West,270,3.3,3.3,59,0.00,,BKN026,0.00,VWS V14.01,2013-04-23 16:25:00,
2013-04-23 12:30:00,61.0,47.5,30.28,NE,45,2.8,3.1,61,0.00,,BKN026,0.00,VWS V14.01,2013-04-23 16:30:00,
2013-04-23 12:35:00,61.0,47.9,30.27,ENE,68,2.2,4.2,62,0.00,,BKN026,0.00,VWS V14.01,2013-04-23 16:35:00,
2013-04-23 12:40:00,61.3,48.2,30.27,North,0,3.1,4.2,62,0.00,,BKN026,0.00,VWS V14.01,2013-04-23 16:40:00,
2013-04-23 12:45:00,61.7,48.1,30.27,ENE,68,6.9,6.9,61,0.00,,BKN026,0.00,VWS V14.01,2013-04-23 16:45:00,
2013-04-23 12:50:00,61.5,48.4,30.27,NNE,22,4.2,4.2,62,0.00,,BKN026,0.00,VWS V14.01,2013-04-23 16:50:00,
2013-04-23 12:55:00,61.7,48.5,30.26,ENE,68,4.6,6.0,62,0.00,,BKN026,0.00,VWS V14.01,2013-04-23 16:55:00,
2013-04-23 13:00:00,62.0,48.8,30.26,NE,45,5.5,6.9,62,0.00,,BKN026,0.00,VWS V14.01,2013-04-23 17:00:00,
2013-04-23 13:05:00,61.9,48.3,30.26,NE,45,3.7,3.7,61,0.00,,BKN150,0.00,VWS V14.01,2013-04-23 17:05:00,
2013-04-23 13:10:00,61.7,48.1,30.25,NNE,22,4.9,4.9,61,0.00,,BKN150,0.00,VWS V14.01,2013-04-23 17:10:00,
2013-04-23 13:15:00,61.3,47.7,30.25,ENE,68,6.0,6.0,61,0.00,,BKN150,0.00,VWS V14.01,2013-04-23 17:15:00,
2013-04-23 13:20:00,61.3,48.2,30.25,North,0,1.9,1.9,62,0.00,,BKN150,0.00,VWS V14.01,2013-04-23 17:20:00,
2013-04-23 13:25:00,61.3,48.2,30.25,North,0,3.5,3.5,62,0.00,,BKN150,0.00,VWS V14.01,2013-04-23 17:25:00,
2013-04-23 13:30:00,62.0,48.4,30.24,NE,45,4.2,4.2,61,0.00,,BKN150,0.00,VWS V14.01,2013-04-23 17:30:00,
2013-04-23 13:35:00,62.4,48.3,30.24,ENE,68,3.3,3.3,60,0.00,,BKN150,0.00,VWS V14.01,2013-04-23 17:35:00,
2013-04-23 13:40:00,62.6,49.0,30.24,WNW,292,4.0,4.0,61,0.00,,BKN150,0.00,VWS V14.01,2013-04-23 17:40:00,
2013-04-23 13:45:00,62.9,49.2,30.23,SSW,202,2.2,3.1,61,0.00,,BKN150,0.00,VWS V14.01,2013-04-23 17:45:00,
2013-04-23 13:50:00,63.5,49.3,30.23,NE,45,3.1,3.1,60,0.00,,BKN150,0.00,VWS V14.01,2013-04-23 17:50:00,
2013-04-23 13:55:00,63.8,49.6,30.23,SE,135,1.9,2.4,60,0.00,,BKN150,0.00,VWS V14.01,2013-04-23 17:55:00,
2013-04-23 14:00:00,64.0,48.9,30.23,NNW,338,2.2,2.6,58,0.00,,BKN150,0.00,VWS V14.01,2013-04-23 18:00:00,
2013-04-23 14:05:00,64.2,49.5,30.23,ESE,112,3.1,3.1,59,0.00,,BKN150,0.00,VWS V14.01,2013-04-23 18:05:00,
2013-04-23 14:10:00,64.8,50.7,30.22,SSW,202,4.2,4.2,60,0.00,,BKN150,0.00,VWS V14.01,2013-04-23 18:10:00,
2013-04-23 14:15:00,65.2,50.6,30.22,NE,45,2.8,2.8,59,0.00,,BKN150,0.00,VWS V14.01,2013-04-23 18:15:00,
2013-04-23 14:20:00,65.4,50.3,30.22,SSE,158,2.6,2.6,58,0.00,,BKN150,0.00,VWS V14.01,2013-04-23 18:20:00,
2013-04-23 14:25:00,65.5,49.9,30.22,ENE,68,2.6,2.6,57,0.00,,BKN150,0.00,VWS V14.01,2013-04-23 18:25:00,
2013-04-23 14:30:00,65.0,49.9,30.22,SW,225,2.6,2.6,58,0.00,,BKN150,0.00,VWS V14.01,2013-04-23 18:30:00,
2013-04-23 14:35:00,65.5,49.9,30.22,ENE,68,1.9,1.9,57,0.00,,BKN150,0.00,VWS V14.01,2013-04-23 18:35:00,
2013-04-23 14:40:00,65.4,50.3,30.21,NNE,22,3.1,3.1,58,0.00,,BKN150,0.00,VWS V14.01,2013-04-23 18:40:00,
2013-04-23 14:45:00,65.9,50.8,30.22,NNE,22,6.0,6.0,58,0.00,,BKN150,0.00,VWS V14.01,2013-04-23 18:45:00,
2013-04-23 14:50:00,66.1,50.5,30.22,North,0,2.6,2.6,57,0.00,,BKN150,0.00,VWS V14.01,2013-04-23 18:50:00,
2013-04-23 14:55:00,66.4,50.8,30.22,South,180,3.5,3.5,57,0.00,,BKN150,0.00,VWS V14.01,2013-04-23 18:55:00,
2013-04-23 15:00:00,67.5,51.8,30.21,WSW,248,1.9,2.6,57,0.00,,BKN150,0.00,VWS V14.01,2013-04-23 19:00:00,
2013-04-23 15:05:00,67.9,51.2,30.21,East,90,1.9,2.6,55,0.00,,SCT250,0.00,VWS V14.01,2013-04-23 19:05:00,
2013-04-23 15:10:00,67.9,51.7,30.21,SSW,202,2.2,2.2,56,0.00,,SCT250,0.00,VWS V14.01,2013-04-23 19:10:00,
2013-04-23 15:15:00,68.4,52.1,30.20,SW,225,3.3,3.3,56,0.00,,SCT250,0.00,VWS V14.01,2013-04-23 19:15:00,
2013-04-23 15:20:00,69.0,52.2,30.20,WSW,248,2.2,2.4,55,0.00,,SCT250,0.00,VWS V14.01,2013-04-23 19:20:00,
2013-04-23 15:25:00,69.0,52.2,30.20,SSW,202,2.6,2.6,55,0.00,,SCT250,0.00,VWS V14.01,2013-04-23 19:25:00,
2013-04-23 15:30:00,69.3,52.5,30.20,South,180,2.6,2.6,55,0.00,,SCT250,0.00,VWS V14.01,2013-04-23 19:30:00,
2013-04-23 15:35:00,69.1,51.8,30.20,ESE,112,4.0,4.0,54,0.00,,SCT250,0.00,VWS V14.01,2013-04-23 19:35:00,
2013-04-23 15:40:00,68.8,51.0,30.20,East,90,2.6,2.6,53,0.00,,SCT250,0.00,VWS V14.01,2013-04-23 19:40:00,
2013-04-23 15:45:00,68.1,50.9,30.20,NW,315,2.4,2.4,54,0.00,,SCT250,0.00,VWS V14.01,2013-04-23 19:45:00,
2013-04-23 15:50:00,68.1,50.9,30.20,North,0,2.2,2.2,54,0.00,,SCT250,0.00,VWS V14.01,2013-04-23 19:50:00,
2013-04-23 15:55:00,68.2,51.0,30.20,NE,45,3.3,3.3,54,0.00,,SCT250,0.00,VWS V14.01,2013-04-23 19:55:00,
2013-04-23 16:00:00,68.4,51.6,30.20,SW,225,1.7,1.7,55,0.00,,SCT250,0.00,VWS V14.01,2013-04-23 20:00:00,
2013-04-23 16:05:00,68.1,51.3,30.20,SW,225,2.6,2.8,55,0.00,,SCT250,0.00,VWS V14.01,2013-04-23 20:05:00,
2013-04-23 16:10:00,68.1,51.3,30.20,SE,135,2.4,2.4,55,0.00,,SCT250,0.00,VWS V14.01,2013-04-23 20:10:00,
2013-04-23 16:15:00,68.1,51.3,30.19,NNW,338,1.5,1.5,55,0.00,,SCT250,0.00,VWS V14.01,2013-04-23 20:15:00,
2013-04-23 16:20:00,69.0,52.2,30.19,SSW,202,3.3,3.3,55,0.00,,SCT250,0.00,VWS V14.01,2013-04-23 20:20:00,
2013-04-23 16:25:00,69.5,52.6,30.19,WSW,248,6.0,6.0,55,0.00,,SCT250,0.00,VWS V14.01,2013-04-23 20:25:00,
2013-04-23 16:30:00,70.0,53.1,30.18,WSW,248,2.6,2.6,55,0.00,,SCT250,0.00,VWS V14.01,2013-04-23 20:30:00,
2013-04-23 16:35:00,70.4,53.0,30.18,SSE,158,2.4,2.4,54,0.00,,SCT250,0.00,VWS V14.01,2013-04-23 20:35:00,
2013-04-23 16:40:00,70.6,52.6,30.17,SE,135,2.4,2.4,53,0.00,,SCT250,0.00,VWS V14.01,2013-04-23 20:40:00,
2013-04-23 16:45:00,70.2,52.3,30.17,North,0,2.8,2.8,53,0.00,,SCT250,0.00,VWS V14.01,2013-04-23 20:45:00,
2013-04-23 16:50:00,69.7,51.8,30.17,NW,315,2.2,2.2,53,0.00,,SCT250,0.00,VWS V14.01,2013-04-23 20:50:00,
2013-04-23 16:55:00,69.7,52.3,30.17,NE,45,1.9,2.6,54,0.00,,SCT250,0.00,VWS V14.01,2013-04-23 20:55:00,
2013-04-23 17:00:00,69.5,52.1,30.17,East,90,1.5,1.7,54,0.00,,SCT250,0.00,VWS V14.01,2013-04-23 21:00:00,
2013-04-23 17:05:00,69.5,52.1,30.17,WSW,248,2.4,2.6,54,0.00,,CLR,0.00,VWS V14.01,2013-04-23 21:05:00,
2013-04-23 17:10:00,69.7,52.3,30.17,SE,135,2.2,2.2,54,0.00,,CLR,0.00,VWS V14.01,2013-04-23 21:10:00,
2013-04-23 17:15:00,69.7,51.8,30.17,East,90,2.2,2.2,53,0.00,,CLR,0.00,VWS V14.01,2013-04-23 21:15:00,
2013-04-23 17:20:00,69.5,52.1,30.16,WSW,248,1.9,2.4,54,0.00,,CLR,0.00,VWS V14.01,2013-04-23 21:20:00,
2013-04-23 17:25:00,69.7,52.3,30.16,SSE,158,2.4,2.4,54,0.00,,CLR,0.00,VWS V14.01,2013-04-23 21:25:00,
2013-04-23 17:30:00,70.0,52.6,30.16,SE,135,3.3,3.3,54,0.00,,CLR,0.00,VWS V14.01,2013-04-23 21:30:00,
2013-04-23 17:35:00,70.0,52.6,30.16,NNE,22,2.6,2.6,54,0.00,,CLR,0.00,VWS V14.01,2013-04-23 21:35:00,
2013-04-23 17:40:00,70.0,52.6,30.15,NNE,22,1.9,1.9,54,0.00,,CLR,0.00,VWS V14.01,2013-04-23 21:40:00,
2013-04-23 17:45:00,70.0,52.6,30.16,SE,135,2.6,2.6,54,0.00,,CLR,0.00,VWS V14.01,2013-04-23 21:45:00,
2013-04-23 17:50:00,70.0,52.6,30.15,NNE,22,3.1,3.1,54,0.00,,CLR,0.00,VWS V14.01,2013-04-23 21:50:00,
2013-04-23 17:55:00,69.9,52.5,30.15,WSW,248,1.9,1.9,54,0.00,,CLR,0.00,VWS V14.01,2013-04-23 21:55:00,
2013-04-23 18:00:00,69.5,52.1,30.15,ENE,68,1.5,1.5,54,0.00,,CLR,0.00,VWS V14.01,2013-04-23 22:00:00,
2013-04-23 18:05:00,69.3,52.0,30.15,SE,135,2.4,2.4,54,0.00,,SCT250,0.00,VWS V14.01,2013-04-23 22:05:00,
2013-04-23 18:10:00,69.3,52.0,30.16,WSW,248,1.7,1.7,54,0.00,,SCT250,0.00,VWS V14.01,2013-04-23 22:10:00,
2013-04-23 18:15:00,69.0,51.2,30.16,SSE,158,1.9,1.9,53,0.00,,SCT250,0.00,VWS V14.01,2013-04-23 22:15:00,
2013-04-23 18:20:00,68.6,50.8,30.16,ESE,112,2.8,2.8,53,0.00,,SCT250,0.00,VWS V14.01,2013-04-23 22:20:00,
2013-04-23 18:25:00,68.4,51.1,30.16,North,0,2.6,2.6,54,0.00,,SCT250,0.00,VWS V14.01,2013-04-23 22:25:00,
2013-04-23 18:30:00,68.4,51.6,30.16,SE,135,1.9,1.9,55,0.00,,SCT250,0.00,VWS V14.01,2013-04-23 22:30:00,
2013-04-23 18:35:00,68.4,51.6,30.15,NE,45,1.5,2.2,55,0.00,,SCT250,0.00,VWS V14.01,2013-04-23 22:35:00,
2013-04-23 18:40:00,68.2,51.5,30.16,ESE,112,1.9,2.4,55,0.00,,SCT250,0.00,VWS V14.01,2013-04-23 22:40:00,
2013-04-23 18:45:00,68.1,51.3,30.16,East,90,1.5,1.5,55,0.00,,SCT250,0.00,VWS V14.01,2013-04-23 22:45:00,
2013-04-23 18:50:00,67.9,51.7,30.16,ENE,68,1.7,1.7,56,0.00,,SCT250,0.00,VWS V14.01,2013-04-23 22:50:00,
2013-04-23 18:55:00,68.4,52.1,30.16,ENE,68,1.5,1.5,56,0.00,,SCT250,0.00,VWS V14.01,2013-04-23 22:55:00,
2013-04-23 19:00:00,68.6,52.3,30.16,SE,135,1.9,1.9,56,0.00,,SCT250,0.00,VWS V14.01,2013-04-23 23:00:00,
2013-04-23 19:05:00,68.4,51.6,30.16,SE,135,1.5,2.2,55,0.00,,CLR,0.00,VWS V14.01,2013-04-23 23:05:00,
2013-04-23 19:10:00,68.1,51.8,30.16,SSW,202,3.3,3.3,56,0.00,,CLR,0.00,VWS V14.01,2013-04-23 23:10:00,
2013-04-23 19:15:00,67.9,51.7,30.16,SSE,158,1.9,1.9,56,0.00,,CLR,0.00,VWS V14.01,2013-04-23 23:15:00,
2013-04-23 19:20:00,67.7,51.5,30.16,ESE,112,1.5,1.5,56,0.00,,CLR,0.00,VWS V14.01,2013-04-23 23:20:00,
2013-04-23 19:25:00,67.3,51.6,30.16,ESE,112,1.9,1.9,57,0.00,,CLR,0.00,VWS V14.01,2013-04-23 23:25:00,
2013-04-23 19:30:00,66.8,51.6,30.16,North,0,2.6,2.6,58,0.00,,CLR,0.00,VWS V14.01,2013-04-23 23:30:00,
2013-04-23 19:35:00,66.6,51.4,30.16,SW,225,1.9,1.9,58,0.00,,CLR,0.00,VWS V14.01,2013-04-23 23:35:00,
2013-04-23 19:40:00,65.9,51.2,30.17,SE,135,1.5,1.5,59,0.00,,CLR,0.00,VWS V14.01,2013-04-23 23:40:00,
2013-04-23 19:45:00,65.5,51.3,30.17,ESE,112,1.5,1.5,60,0.00,,CLR,0.00,VWS V14.01,2013-04-23 23:45:00,
2013-04-23 19:50:00,65.0,51.3,30.17,NNW,338,1.5,1.5,61,0.00,,CLR,0.00,VWS V14.01,2013-04-23 23:50:00,
2013-04-23 19:55:00,64.6,50.8,30.17,North,0,1.5,1.5,61,0.00,,CLR,0.00,VWS V14.01,2013-04-23 23:55:00,
2013-04-23 20:00:00,64.2,50.9,30.17,North,0,1.5,1.5,62,0.00,,CLR,0.00,VWS V14.01,2013-04-24 00:00:00,
2013-04-23 20:05:00,64.0,51.1,30.17,ENE,68,1.5,1.5,63,0.00,,FEW250,0.00,VWS V14.01,2013-04-24 00:05:00,
2013-04-23 20:10:00,63.5,51.1,30.17,WSW,248,1.5,1.5,64,0.00,,FEW250,0.00,VWS V14.01,2013-04-24 00:10:00,
2013-04-23 20:15:00,63.1,50.7,30.17,WSW,248,1.5,1.5,64,0.00,,FEW250,0.00,VWS V14.01,2013-04-24 00:15:00,
2013-04-23 20:20:00,62.8,50.8,30.17,WSW,248,1.5,1.5,65,0.00,,FEW250,0.00,VWS V14.01,2013-04-24 00:20:00,
2013-04-23 20:25:00,62.4,50.5,30.18,WSW,248,1.5,1.5,65,0.00,,FEW250,0.00,VWS V14.01,2013-04-24 00:25:00,
2013-04-23 20:30:00,61.9,50.4,30.18,WSW,248,1.5,1.5,66,0.00,,FEW250,0.00,VWS V14.01,2013-04-24 00:30:00,
2013-04-23 20:35:00,61.5,50.4,30.17,WSW,248,1.5,1.5,67,0.00,,FEW250,0.00,VWS V14.01,2013-04-24 00:35:00,
2013-04-23 20:40:00,61.0,50.4,30.18,WSW,248,1.5,1.5,68,0.00,,FEW250,0.00,VWS V14.01,2013-04-24 00:40:00,
2013-04-23 20:45:00,60.6,50.4,30.17,WSW,248,1.5,1.5,69,0.00,,FEW250,0.00,VWS V14.01,2013-04-24 00:45:00,
2013-04-23 20:49:00,60.2,49.6,30.18,WSW,248,1.5,1.5,68,0.00,,FEW250,0.00,VWS V14.01,2013-04-24 00:49:00,
2013-04-23 20:54:00,59.9,49.7,30.17,WSW,248,1.5,1.5,69,0.00,,FEW250,0.00,VWS V14.01,2013-04-24 00:54:00,
2013-04-23 20:59:00,59.5,49.7,30.17,WSW,248,1.5,1.5,70,0.00,,FEW250,0.00,VWS V14.01,2013-04-24 00:59:00,
2013-04-23 21:04:00,59.2,49.4,30.17,WSW,248,1.5,1.5,70,0.00,,CLR,0.00,VWS V14.01,2013-04-24 01:04:00,
2013-04-23 21:09:00,59.0,49.6,30.17,WSW,248,1.5,1.5,71,0.00,,CLR,0.00,VWS V14.01,2013-04-24 01:09:00,
2013-04-23 21:14:00,58.8,49.8,30.17,NNW,338,1.5,1.5,72,0.00,,CLR,0.00,VWS V14.01,2013-04-24 01:14:00,
2013-04-23 21:19:00,58.6,50.0,30.17,NNE,22,1.5,2.2,73,0.00,,CLR,0.00,VWS V14.01,2013-04-24 01:19:00,
2013-04-23 21:24:00,58.6,50.0,30.18,ENE,68,1.5,1.5,73,0.00,,CLR,0.00,VWS V14.01,2013-04-24 01:24:00,
2013-04-23 21:29:00,58.8,50.2,30.18,ENE,68,1.5,1.5,73,0.00,,CLR,0.00,VWS V14.01,2013-04-24 01:29:00,
2013-04-23 21:34:00,58.8,50.2,30.19,ENE,68,1.5,1.5,73,0.00,,CLR,0.00,VWS V14.01,2013-04-24 01:34:00,
2013-04-23 21:39:00,58.6,50.0,30.19,North,0,1.5,1.5,73,0.00,,CLR,0.00,VWS V14.01,2013-04-24 01:39:00,
2013-04-23 21:44:00,58.4,49.8,30.19,North,0,1.5,1.5,73,0.00,,CLR,0.00,VWS V14.01,2013-04-24 01:44:00,
2013-04-23 21:49:00,58.1,49.9,30.19,North,0,1.5,1.5,74,0.00,,CLR,0.00,VWS V14.01,2013-04-24 01:49:00,
2013-04-23 21:54:00,57.9,49.7,30.19,North,0,1.5,1.5,74,0.00,,CLR,0.00,VWS V14.01,2013-04-24 01:54:00,
2013-04-23 21:59:00,57.5,49.7,30.19,North,0,1.5,1.5,75,0.00,,CLR,0.00,VWS V14.01,2013-04-24 01:59:00,
2013-04-23 22:04:00,57.4,49.9,30.19,North,0,1.5,1.5,76,0.00,,FEW250,0.00,VWS V14.01,2013-04-24 02:04:00,
2013-04-23 22:09:00,57.2,49.7,30.19,North,0,1.5,1.5,76,0.00,,FEW250,0.00,VWS V14.01,2013-04-24 02:09:00,
2013-04-23 22:14:00,57.0,49.5,30.19,North,0,1.5,1.5,76,0.00,,FEW250,0.00,VWS V14.01,2013-04-24 02:14:00,
2013-04-23 22:19:00,56.8,49.7,30.19,NNW,338,1.5,1.5,77,0.00,,FEW250,0.00,VWS V14.01,2013-04-24 02:19:00,
2013-04-23 22:24:00,56.6,49.5,30.19,North,0,1.5,1.5,77,0.00,,FEW250,0.00,VWS V14.01,2013-04-24 02:24:00,
2013-04-23 22:29:00,56.6,49.5,30.19,North,0,1.5,1.5,77,0.00,,FEW250,0.00,VWS V14.01,2013-04-24 02:29:00,
2013-04-23 22:35:00,56.6,49.9,30.19,NW,315,1.7,1.7,78,0.00,,FEW250,0.00,VWS V14.01,2013-04-24 02:35:00,
2013-04-23 22:40:00,56.5,50.1,30.19,North,0,1.5,1.5,79,0.00,,FEW250,0.00,VWS V14.01,2013-04-24 02:40:00,
2013-04-23 22:45:00,56.3,49.9,30.18,WSW,248,1.5,1.5,79,0.00,,FEW250,0.00,VWS V14.01,2013-04-24 02:45:00,
2013-04-23 22:50:00,56.3,50.2,30.18,ENE,68,3.1,3.1,80,0.00,,FEW250,0.00,VWS V14.01,2013-04-24 02:50:00,
2013-04-23 22:55:00,56.5,50.1,30.18,ENE,68,1.5,1.5,79,0.00,,FEW250,0.00,VWS V14.01,2013-04-24 02:55:00,
2013-04-23 23:00:00,56.6,50.5,30.18,North,0,1.9,2.2,80,0.00,,FEW250,0.00,VWS V14.01,2013-04-24 03:00:00,
2013-04-23 23:05:00,56.6,50.2,30.18,SW,225,1.5,1.5,79,0.00,,FEW250,0.00,VWS V14.01,2013-04-24 03:05:00,
2013-04-23 23:10:00,56.8,50.4,30.18,NE,45,1.7,1.7,79,0.00,,FEW250,0.00,VWS V14.01,2013-04-24 03:10:00,
2013-04-23 23:15:00,56.8,50.4,30.19,WSW,248,1.5,1.9,79,0.00,,FEW250,0.00,VWS V14.01,2013-04-24 03:15:00,
2013-04-23 23:20:00,56.8,50.4,30.19,NNE,22,1.5,1.5,79,0.00,,FEW250,0.00,VWS V14.01,2013-04-24 03:20:00,
2013-04-23 23:25:00,56.6,50.2,30.19,ENE,68,1.5,1.5,79,0.00,,FEW250,0.00,VWS V14.01,2013-04-24 03:25:00,
2013-04-23 23:30:00,56.5,50.1,30.19,NE,45,1.5,1.5,79,0.00,,FEW250,0.00,VWS V14.01,2013-04-24 03:30:00,
2013-04-23 23:35:00,56.5,50.1,30.19,NE,45,1.5,1.5,79,0.00,,FEW250,0.00,VWS V14.01,2013-04-24 03:35:00,
2013-04-23 23:40:00,56.1,50.1,30.19,NNE,22,1.5,1.9,80,0.00,,FEW250,0.00,VWS V14.01,2013-04-24 03:40:00,
2013-04-23 23:45:00,56.1,49.7,30.19,NNE,22,1.5,1.5,79,0.00,,FEW250,0.00,VWS V14.01,2013-04-24 03:45:00,
2013-04-23 23:50:00,55.9,49.9,30.19,NW,315,1.5,1.5,80,0.00,,FEW250,0.00,VWS V14.01,2013-04-24 03:50:00,
2013-04-23 23:55:00,55.7,49.7,30.19,WNW,292,1.5,1.5,80,0.00,,FEW250,0.00,VWS V14.01,2013-04-24 03:55:00,